FW5442 Weather Reports


time (UTC)temp
C
wind
direction
speed
KPH
gust
KPH
rain 1hr
cm
rain 24hr
cm
rain mn
cm
humidity
%
barometer
mb
20260906073059 26 202 4.8 4.8 0.00 0.00 0.00 80 1010.8
20260906072557 26 217 3.2 4.8 0.00 0.00 0.00 80 1010.8
20260906072057 26 223 3.2 3.2 0.00 0.00 0.00 80 1010.8
20260906071603 26 169 1.6 3.2 0.00 0.00 0.00 79 1010.7
20260906071101 26 161 1.6 3.2 0.00 0.00 0.00 79 1010.7
20260906070556 26 203 1.6 3.2 0.00 0.00 0.00 79 1010.8
20260906070103 26 0 0.0 0.0 0.00 0.00 0.00 79 1010.8
20260906065556 27 0 0.0 0.0 0.00 0.00 0.00 78 1010.9
20260906065054 27 0 0.0 0.0 0.00 0.00 0.00 77 1010.9
20260906064600 27 0 0.0 0.0 0.00 0.00 0.00 77 1010.8
20260906064059 27 0 0.0 0.0 0.00 0.00 0.00 77 1010.9
20260906063553 27 0 0.0 0.0 0.00 0.00 0.00 77 1011.0
20260906063105 27 0 0.0 0.0 0.00 0.00 0.00 76 1011.0
20260906062554 27 0 0.0 0.0 0.00 0.00 0.00 76 1011.0
20260906062054 27 0 0.0 0.0 0.00 0.00 0.00 76 1011.0
20260906061623 27 0 0.0 1.6 0.00 0.00 0.00 76 1011.1
20260906061054 27 0 0.0 1.6 0.00 0.00 0.00 75 1011.1
20260906060554 27 241 1.6 1.6 0.00 0.00 0.00 75 1011.1
20260906060119 27 240 1.6 1.6 0.00 0.00 0.00 75 1011.0
20260906055554 27 242 1.6 1.6 0.00 0.00 0.00 75 1011.1
20260906055056 27 234 1.6 3.2 0.00 0.00 0.00 75 1011.1
20260906054605 27 231 1.6 3.2 0.00 0.00 0.00 74 1011.3
20260906054056 27 231 3.2 4.8 0.00 0.00 0.00 74 1011.3
20260906053556 27 224 3.2 4.8 0.00 0.00 0.00 74 1011.3
20260906053102 27 214 3.2 4.8 0.00 0.00 0.00 74 1011.3
20260906052556 27 211 3.2 8.0 0.00 0.00 0.00 74 1011.4
20260906052055 27 219 4.8 8.0 0.00 0.00 0.00 73 1011.3
20260906051608 27 193 6.4 9.7 0.00 0.00 0.00 73 1011.2
20260906051055 27 181 8.0 11.3 0.00 0.00 0.00 73 1011.1
20260906050556 28 173 9.7 11.3 0.00 0.00 0.00 72 1011.1
20260906050104 28 201 8.0 12.9 0.00 0.00 0.00 72 1011.1
20260906045558 28 216 8.0 12.9 0.00 0.00 0.00 72 1011.1
20260906045056 28 202 9.7 14.5 0.00 0.00 0.00 71 1011.0
20260906044603 28 194 11.3 16.1 0.00 0.00 0.00 70 1010.8
20260906044055 28 193 11.3 17.7 0.00 0.00 0.00 70 1010.9
20260906043600 28 186 12.9 17.7 0.00 0.00 0.00 69 1010.9
20260906043105 28 191 12.9 17.7 0.00 0.00 0.00 69 1010.8
20260906042556 28 195 14.5 19.3 0.00 0.00 0.00 69 1011.0
20260906042056 28 179 12.9 19.3 0.00 0.00 0.00 68 1010.8
20260906041601 28 192 14.5 19.3 0.00 0.00 0.00 69 1010.8
20260906041056 28 174 9.7 16.1 0.00 0.00 0.00 69 1010.9
20260906040556 28 167 9.7 16.1 0.00 0.00 0.00 69 1011.0
20260906040057 28 163 11.3 14.5 0.00 0.00 0.00 69 1011.1
20260906035555 28 158 9.7 14.5 0.00 0.00 0.00 69 1011.1
20260906035055 28 166 4.8 9.7 0.00 0.00 0.00 68 1011.0
20260906034606 29 172 4.8 8.0 0.00 0.00 0.00 67 1011.1
20260906034053 29 172 6.4 8.0 0.00 0.00 0.00 66 1011.1
20260906033555 29 168 4.8 9.7 0.00 0.00 0.00 66 1011.3
20260906033114 29 174 4.8 9.7 0.00 0.00 0.00 65 1011.1
20260906032556 29 162 8.0 9.7 0.00 0.00 0.00 65 1011.2
20260906032054 29 163 6.4 9.7 0.00 0.00 0.00 65 1011.3
20260906031600 29 181 4.8 8.0 0.00 0.00 0.00 65 1011.4
20260906031056 29 167 1.6 9.7 0.00 0.00 0.00 65 1011.3
20260906030554 30 173 3.2 11.3 0.00 0.00 0.00 65 1011.2
20260906030109 30 160 6.4 12.9 0.00 0.00 0.00 64 1011.0
20260906025553 30 162 8.0 12.9 0.00 0.00 0.00 64 1011.1
20260906025053 30 176 9.7 12.9 0.00 0.00 0.00 65 1011.2
20260906024559 29 149 4.8 12.9 0.00 0.00 0.00 66 1011.3
20260906024053 28 119 9.7 12.9 0.00 0.00 0.00 67 1011.3
20260906023554 29 156 0.0 3.2 0.00 0.00 0.00 65 1011.2
20260906023109 30 183 0.0 1.6 0.00 0.00 0.00 64 1011.1
20260906022553 30 0 0.0 3.2 0.00 0.00 0.00 65 1011.1
20260906022053 30 227 1.6 4.8 0.00 0.00 0.00 64 1011.1
20260906021601 30 245 3.2 4.8 0.00 0.00 0.00 64 1011.0
20260906021053 30 218 3.2 4.8 0.00 0.00 0.00 63 1011.0
20260906020557 30 264 3.2 6.4 0.00 0.00 0.00 63 1010.8
20260906020100 30 200 4.8 6.4 0.00 0.00 0.00 63 1010.8
20260906015552 30 245 1.6 3.2 0.00 0.00 0.00 63 1010.8
20260906015053 30 0 0.0 3.2 0.00 0.00 0.00 63 1010.8
20260906014606 30 0 0.0 0.0 0.00 0.00 0.00 62 1010.6
20260906014054 31 0 0.0 0.0 0.00 0.00 0.00 60 1010.4
20260906013554 31 0 0.0 1.6 0.00 0.00 0.00 60 1010.5
20260906013100 31 0 0.0 3.2 0.00 0.00 0.00 59 1010.4
20260906012555 31 153 0.0 3.2 0.00 0.00 0.00 57 1010.2
20260906012053 32 0 1.6 6.4 0.00 0.00 0.00 57 1010.0
20260906011608 32 316 1.6 9.7 0.00 0.00 0.00 56 1010.0
20260906011053 32 311 6.4 9.7 0.00 0.00 0.00 55 1009.9
20260906010552 32 286 6.4 9.7 0.00 0.00 0.00 54 1009.9
20260906005553 32 290 6.4 9.7 0.00 0.00 0.00 54 1009.7
20260906005057 32 304 3.2 6.4 0.00 0.00 0.00 54 1009.8
20260906004601 32 292 4.8 6.4 0.00 0.00 0.00 53 1009.7
20260906004056 33 299 4.8 6.4 0.00 0.00 0.00 52 1009.6
20260906003554 33 304 4.8 6.4 0.00 0.00 0.00 51 1009.6
20260906003104 33 295 3.2 8.0 0.00 0.00 0.00 51 1009.6
20260906002552 33 296 4.8 11.3 0.00 0.00 0.00 51 1009.5
20260906002056 33 295 6.4 11.3 0.00 0.00 0.00 51 1009.4
20260906001605 33 294 8.0 12.9 0.00 0.00 0.00 50 1009.4
20260906001056 34 287 8.0 16.1 0.00 0.00 0.00 49 1009.5
20260906000555 34 297 9.7 16.1 0.00 0.00 0.00 49 1009.5
20260906000104 34 288 12.9 16.1 0.00 0.00 0.00 48 1009.4
20260905235553 35 299 11.3 19.3 0.00 0.00 0.00 48 1009.4
20260905235056 35 289 11.3 19.3 0.00 0.00 0.00 47 1009.4
20260905234557 35 293 12.9 17.7 0.00 0.00 0.00 47 1009.4
20260905234053 35 291 9.7 16.1 0.00 0.00 0.00 47 1009.3
20260905233556 35 307 9.7 14.5 0.00 0.00 0.00 46 1009.2
20260905233116 36 308 0.0 3.2 0.00 0.00 0.00 41 1009.2
20260905232555 36 0 0.0 3.2 0.00 0.00 0.00 41 1009.2
20260905232053 36 0 0.0 4.8 0.00 0.00 0.00 41 1009.2
20260905231602 36 84 3.2 4.8 0.00 0.00 0.00 41 1009.3
20260905231055 36 78 4.8 4.8 0.00 0.00 0.00 40 1009.2
20260905230555 35 79 4.8 8.0 0.00 0.00 0.00 41 1009.3
20260905230106 35 76 4.8 9.7 0.00 0.00 0.00 41 1009.1
20260905225556 36 94 6.4 12.9 0.00 0.00 0.00 41 1009.1
20260905225056 36 85 8.0 14.5 0.00 0.00 0.00 41 1009.3
20260905224604 36 59 8.0 14.5 0.00 0.00 0.00 40 1009.2
20260905224053 36 96 9.7 14.5 0.00 0.00 0.00 41 1009.1
20260905223553 36 82 4.8 12.9 0.00 0.00 0.00 39 1009.1
20260905223106 37 82 9.7 17.7 0.00 0.00 0.00 37 1009.3
20260905222552 37 104 6.4 19.3 0.00 0.00 0.00 38 1009.3
20260905222052 37 83 11.3 19.3 0.00 0.00 0.00 36 1009.3
20260905221604 38 123 11.3 19.3 0.00 0.00 0.00 35 1009.3
20260905221053 38 338 4.8 12.9 0.00 0.00 0.00 35 1009.4
20260905220552 38 360 4.8 16.1 0.00 0.00 0.00 34 1009.5
20260905215555 38 56 3.2 14.5 0.00 0.00 0.00 36 1009.4
20260905215053 38 79 8.0 14.5 0.00 0.00 0.00 36 1009.4
20260905214604 38 14 3.2 14.5 0.00 0.00 0.00 36 1009.5
20260905214056 37 314 4.8 14.5 0.00 0.00 0.00 36 1009.6
20260905213553 38 305 4.8 14.5 0.00 0.00 0.00 36 1009.6
20260905213108 38 203 6.4 11.3 0.00 0.00 0.00 35 1009.6
20260905212553 38 332 3.2 6.4 0.00 0.00 0.00 37 1009.7
20260905212052 37 95 1.6 4.8 0.00 0.00 0.00 37 1009.7
20260905211613 37 95 1.6 6.4 0.00 0.00 0.00 38 1009.7
20260905211055 37 15 0.0 9.7 0.00 0.00 0.00 39 1009.6
20260905210553 36 76 4.8 9.7 0.00 0.00 0.00 39 1009.8
20260905210113 37 68 3.2 17.7 0.00 0.00 0.00 39 1009.8
20260905205554 37 34 4.8 17.7 0.00 0.00 0.00 39 1009.9
20260905205053 37 84 4.8 17.7 0.00 0.00 0.00 38 1009.9
20260905204601 38 80 9.7 17.7 0.00 0.00 0.00 38 1009.9
20260905204052 38 117 0.0 17.7 0.00 0.00 0.00 36 1009.8
20260905203556 38 0 6.4 19.3 0.00 0.00 0.00 37 1010.1
20260905203102 37 93 12.9 19.3 0.00 0.00 0.00 38 1010.2
20260905202557 38 75 6.4 12.9 0.00 0.00 0.00 38 1010.1
20260905202052 37 85 9.7 20.9 0.00 0.00 0.00 38 1010.2
20260905201600 37 90 11.3 20.9 0.00 0.00 0.00 39 1010.2
20260905201053 38 77 8.0 19.3 0.00 0.00 0.00 38 1010.3
20260905200554 38 328 9.7 19.3 0.00 0.00 0.00 37 1010.4
20260905195555 37 27 6.4 12.9 0.00 0.00 0.00 38 1010.8
20260905195053 36 60 6.4 16.1 0.00 0.00 0.00 40 1010.9
20260905194603 37 75 8.0 16.1 0.00 0.00 0.00 40 1011.0
20260905194054 37 119 8.0 16.1 0.00 0.00 0.00 39 1011.1
20260905193553 38 210 3.2 16.1 0.00 0.00 0.00 40 1011.2
20260905193104 37 62 4.8 16.1 0.00 0.00 0.00 39 1011.2
20260905192553 37 338 8.0 16.1 0.00 0.00 0.00 40 1011.2
20260905192056 38 332 8.0 14.5 0.00 0.00 0.00 39 1011.2
20260905191601 38 84 6.4 14.5 0.00 0.00 0.00 39 1011.2
20260905191052 38 349 8.0 14.5 0.00 0.00 0.00 38 1011.5
20260905190600 37 131 4.8 17.7 0.00 0.00 0.00 40 1011.5
20260905190104 38 288 1.6 17.7 0.00 0.00 0.00 39 1011.5
20260905185558 37 27 4.8 17.7 0.00 0.00 0.00 39 1011.8
20260905185053 37 130 6.4 24.1 0.00 0.00 0.00 41 1011.7
20260905184611 37 352 9.7 24.1 0.00 0.00 0.00 40 1011.8
20260905184053 37 31 12.9 24.1 0.00 0.00 0.00 40 1012.1
20260905183553 37 1 3.2 11.3 0.00 0.00 0.00 40 1012.1
20260905183119 37 245 4.8 16.1 0.00 0.00 0.00 42 1012.0
20260905182553 36 31 6.4 16.1 0.00 0.00 0.00 42 1012.2
20260905182052 35 55 6.4 12.9 0.00 0.00 0.00 45 1012.2
20260905181602 36 76 6.4 20.9 0.00 0.00 0.00 42 1012.3
20260905181053 37 86 6.4 20.9 0.00 0.00 0.00 41 1012.4
20260905180557 37 284 4.8 17.7 0.00 0.00 0.00 42 1012.5
20260905175554 37 351 4.8 16.1 0.00 0.00 0.00 42 1012.6
20260905175054 36 6 1.6 17.7 0.00 0.00 0.00 42 1012.7
20260905174605 36 15 6.4 17.7 0.00 0.00 0.00 41 1012.7
20260905174053 37 325 6.4 12.9 0.00 0.00 0.00 40 1012.7
20260905173552 37 319 4.8 17.7 0.00 0.00 0.00 42 1012.8
20260905173100 36 92 8.0 17.7 0.00 0.00 0.00 41 1012.8
20260905172555 36 249 3.2 17.7 0.00 0.00 0.00 44 1012.9
20260905172055 36 0 6.4 16.1 0.00 0.00 0.00 44 1012.9
20260905171557 36 324 4.8 16.1 0.00 0.00 0.00 43 1012.9
20260905171053 36 59 6.4 16.1 0.00 0.00 0.00 43 1013.0
20260905170553 36 296 3.2 17.7 0.00 0.00 0.00 45 1013.0
20260905165552 35 72 9.7 17.7 0.00 0.00 0.00 45 1013.3
20260905165052 35 354 4.8 17.7 0.00 0.00 0.00 44 1013.4
20260905164602 35 355 6.4 17.7 0.00 0.00 0.00 44 1013.4
20260905164054 35 321 4.8 11.3 0.00 0.00 0.00 44 1013.5
20260905163555 36 348 4.8 14.5 0.00 0.00 0.00 44 1013.5
20260905163058 35 95 1.6 16.1 0.00 0.00 0.00 46 1013.5
20260905162556 35 2 6.4 16.1 0.00 0.00 0.00 46 1013.6
20260905162053 35 304 6.4 16.1 0.00 0.00 0.00 48 1013.5
20260905161608 35 330 4.8 16.1 0.00 0.00 0.00 48 1013.6
20260905161053 34 333 9.7 14.5 0.00 0.00 0.00 48 1013.6
20260905160555 34 352 4.8 14.5 0.00 0.00 0.00 49 1013.6
20260905160104 34 311 9.7 19.3 0.00 0.00 0.00 50 1013.7
20260905155554 33 353 8.0 19.3 0.00 0.00 0.00 51 1013.5
20260905155057 33 355 6.4 14.5 0.00 0.00 0.00 51 1013.8
20260905154559 33 319 6.4 16.1 0.00 0.00 0.00 53 1013.7
20260905154054 33 307 6.4 16.1 0.00 0.00 0.00 53 1013.7
20260905153553 33 302 6.4 19.3 0.00 0.00 0.00 53 1013.8
20260905153116 33 355 8.0 19.3 0.00 0.00 0.00 53 1013.7
20260905152553 33 327 6.4 19.3 0.00 0.00 0.00 53 1013.7
20260905152052 32 312 6.4 14.5 0.00 0.00 0.00 55 1013.8
20260905151608 32 313 6.4 19.3 0.00 0.00 0.00 55 1013.7
20260905151053 32 302 6.4 19.3 0.00 0.00 0.00 56 1013.8
20260905150557 32 323 11.3 19.3 0.00 0.00 0.00 57 1013.8
20260905150103 32 295 9.7 19.3 0.00 0.00 0.00 57 1013.7
20260905145555 31 290 8.0 17.7 0.00 0.00 0.00 59 1013.7
20260905145055 31 311 12.9 19.3 0.00 0.00 0.00 59 1013.7
20260905144558 31 276 12.9 20.9 0.00 0.00 0.00 59 1013.7
20260905144058 31 269 12.9 24.1 0.00 0.00 0.00 59 1013.9
20260905143553 31 302 14.5 24.1 0.00 0.00 0.00 58 1013.7
20260905143105 31 286 14.5 22.5 0.00 0.00 0.00 59 1013.7
20260905142552 31 309 14.5 22.5 0.00 0.00 0.00 60 1013.8
20260905142055 30 317 14.5 22.5 0.00 0.00 0.00 60 1013.7
20260905141607 30 297 12.9 19.3 0.00 0.00 0.00 63 1013.8
20260905141133 30 333 9.7 19.3 0.00 0.00 0.00 63 1013.6
20260905140557 30 317 9.7 14.5 0.00 0.00 0.00 66 1013.8
20260905140109 30 320 11.3 14.5 0.00 0.00 0.00 66 1013.7
20260905135556 29 274 9.7 14.5 0.00 0.00 0.00 67 1013.8
20260905135053 29 338 8.0 17.7 0.00 0.00 0.00 68 1013.8
20260905134602 28 301 11.3 17.7 0.00 0.00 0.00 68 1013.8
20260905134055 28 323 11.3 17.7 0.00 0.00 0.00 68 1013.8
20260905133553 28 285 8.0 12.9 0.00 0.00 0.00 70 1013.7
20260905133100 28 294 8.0 11.3 0.00 0.00 0.00 73 1013.8
20260905132555 27 321 4.8 8.0 0.00 0.00 0.00 74 1013.8
20260905132057 27 307 3.2 8.0 0.00 0.00 0.00 76 1013.8
20260905131614 27 295 3.2 6.4 0.00 0.00 0.00 79 1013.7
20260905131054 27 333 3.2 6.4 0.00 0.00 0.00 80 1013.6
20260905130559 26 321 3.2 6.4 0.00 0.00 0.00 82 1013.7
20260905130105 26 318 1.6 6.4 0.00 0.00 0.00 82 1013.6
20260905125555 26 330 3.2 6.4 0.00 0.00 0.00 82 1013.6
20260905125055 26 316 1.6 3.2 0.00 0.00 0.00 84 1013.6
20260905124600 26 0 0.0 1.6 0.00 0.00 0.00 84 1013.7
20260905124055 26 0 0.0 0.0 0.00 0.00 0.00 84 1013.6
20260905123555 25 0 0.0 0.0 0.00 0.00 0.00 86 1013.9
20260905123101 25 0 0.0 1.6 0.00 0.00 0.00 87 1013.8
20260905122555 24 0 0.0 1.6 0.00 0.00 0.00 88 1013.8
20260905122055 24 0 0.0 1.6 0.00 0.00 0.00 89 1013.8
20260905121848 24 0 0.0 3.2 0.00 0.00 0.00 89 1013.8
20260905121339 23 0 1.6 4.8 0.00 0.00 0.00 90 1013.7
20260905120559 23 217 3.2 4.8 0.00 0.00 0.00 89 1013.7
20260905120105 24 235 4.8 4.8 0.00 0.00 0.00 89 1013.8
20260905115601 24 239 4.8 4.8 0.00 0.00 0.00 89 1013.6
20260905115059 24 255 1.6 3.2 0.00 0.00 0.00 89 1013.5
20260905114602 23 283 1.6 3.2 0.00 0.00 0.00 90 1013.4
20260905114058 23 285 0.0 3.2 0.00 0.00 0.00 91 1013.4
20260905113601 23 223 0.0 3.2 0.00 0.00 0.00 92 1013.4
20260905113101 23 215 1.6 3.2 0.00 0.00 0.00 91 1013.4
20260905112558 23 202 3.2 3.2 0.00 0.00 0.00 91 1013.2
20260905112101 23 191 3.2 3.2 0.00 0.00 0.00 92 1013.1
20260905112043 23 176 3.2 3.2 0.00 0.00 0.00 91 1013.2
20260905111058 23 169 1.6 3.2 0.00 0.00 0.00 90 1013.3
20260905110558 23 180 1.6 1.6 0.00 0.00 0.00 91 1013.3
20260905103916 23 233 1.6 3.2 0.00 0.00 0.00 90 1013.0
20260905102554 23 230 1.6 1.6 0.00 0.00 0.00 90 1013.1
20260905102054 23 236 1.6 4.8 0.00 0.00 0.00 90 1013.1
20260905101601 23 216 1.6 4.8 0.00 0.00 0.00 90 1013.1
20260905101053 23 210 4.8 4.8 0.00 0.00 0.00 89 1013.1
20260905100553 24 223 3.2 4.8 0.00 0.00 0.00 89 1013.3
20260905100121 24 0 0.0 0.0 0.00 0.00 0.00 89 1013.2
20260905095555 24 0 0.0 0.0 0.00 0.00 0.00 89 1013.2
20260905095052 23 0 0.0 0.0 0.00 0.00 0.00 89 1013.1
20260905094600 23 0 0.0 0.0 0.00 0.00 0.00 89 1013.3
20260905094057 23 0 0.0 0.0 0.00 0.00 0.00 89 1013.3
20260905093558 24 0 0.0 0.0 0.00 0.00 0.00 89 1013.2
20260905093100 24 0 0.0 0.0 0.00 0.00 0.00 89 1013.2
20260905092559 24 0 0.0 0.0 0.00 0.00 0.00 89 1013.2
20260905092058 24 0 0.0 0.0 0.00 0.00 0.00 89 1013.1
20260905091601 24 0 0.0 0.0 0.00 0.00 0.00 88 1013.1
20260905091058 24 0 0.0 1.6 0.00 0.00 0.00 88 1013.0
20260905090559 23 0 0.0 3.2 0.00 0.00 0.00 88 1013.0
20260905090136 24 238 1.6 3.2 0.00 0.00 0.00 88 1013.1
20260905085558 24 238 1.6 3.2 0.00 0.00 0.00 88 1013.2
20260905085100 24 255 0.0 3.2 0.00 0.00 0.00 88 1013.1
20260905084559 24 221 3.2 3.2 0.00 0.00 0.00 89 1013.2
20260905084057 24 221 1.6 3.2 0.00 0.00 0.00 88 1013.1
20260905083557 24 215 3.2 4.8 0.00 0.00 0.00 88 1013.1
20260905083058 24 212 1.6 4.8 0.00 0.00 0.00 88 1013.1
20260905082558 24 179 4.8 4.8 0.00 0.00 0.00 88 1013.0
20260905082058 24 169 0.0 3.2 0.00 0.00 0.00 88 1012.9
20260905081604 24 221 1.6 3.2 0.00 0.00 0.00 88 1012.9
20260905081058 24 227 3.2 6.4 0.00 0.00 0.00 88 1012.9
20260905080558 24 237 3.2 6.4 0.00 0.00 0.00 87 1012.9
20260905080106 25 215 4.8 6.4 0.00 0.00 0.00 87 1012.9
20260905075558 25 251 1.6 3.2 0.00 0.00 0.00 87 1012.9
20260905075058 25 239 3.2 3.2 0.00 0.00 0.00 87 1012.9
20260905074608 25 231 3.2 3.2 0.00 0.00 0.00 87 1012.9
20260905074059 25 227 1.6 3.2 0.00 0.00 0.00 87 1012.8
20260905073559 25 0 0.0 1.6 0.00 0.00 0.00 86 1012.9